Grand Junction, CO

4:35 AM MDT on September 20, 2019 (GMT -0600)
Walker

Weather History for KGJT - June, 2019

Change the Weather History Date:

Saturday, June 1, 2019

  Actual Average Record
Temperature  
Mean Temperature 71 °F 67 °F  
Max Temperature 86 °F 82 °F 97 °F (1910)
Min Temperature 55 °F 52 °F 35 °F (1919)
Degree Days  
Heating Degree Days 0 2  
Month to date heating degree days 0 2  
Since 1 June heating degree days 0 2  
Since 1 July heating degree days 5656 5591  
Cooling Degree Days 6 4  
Month to date cooling degree days 6 4  
Year to date cooling degree days 18 55  
Since 1 June cooling degree days 6 4  
Growing Degree Days 22 (Base 50)    
Moisture  
Dew Point 34 °F    
Average Humidity 30    
Maximum Humidity 47    
Minimum Humidity 13    
Precipitation  
Precipitation 0.00 in 0.02 in 0.28 in (1897)
Month to date precipitation 0.00 0.02  
Year to date precipitation 5.84 3.85  
Snow  
Snow 0.00 in 0.00 in 0.00 in (2001)
Month to date snowfall 0.0 0.0  
Since 1 June snowfall 0.0 0.0  
Since 1 July snowfall 17.4 19.1  
Snow Depth 0.00 in    
Sea Level Pressure  
Sea Level Pressure 29.77 in    
Wind  
Wind Speed 8 mph (East)    
Max Wind Speed 20 mph    
Max Gust Speed 23 mph    
Visibility 10 miles    
Events      
T = Trace of Precipitation, MM = Missing Value Source: NWS Daily Summary

Daily Weather History Graph

Daily Weather History Graph

Search for Another Location

Airport or City:

Astronomy

Jun. 01, 2019 Rise Set
Actual Time 5:50 AM MDT 8:34 PM MDT
Civil Twilight 5:18 AM MDT 9:05 PM MDT
Nautical Twilight 4:39 AM MDT 9:45 PM MDT
Astronomical Twilight 3:54 AM MDT 10:30 PM MDT
Moon 4:55 AM MDT (6/1) 6:52 PM MDT (6/1)
Length of Visible Light 15h 47m
Length of Day
14h 44m
Waning Crescent, 3% of the Moon is Illuminated
Jun 1
Waning Crescent
Jun 3
New
Jun 10
First Quarter
Jun 17
Full
Jun 25
Last Quarter

Hourly Weather History & Observations

Time (MDT) Temp. Dew Point Humidity Pressure Visibility Wind Dir Wind Speed Gust Speed Precip Events Conditions
12:53 AM 63.0 °F 37.9 °F 40% 29.83 in 10.0 mi Calm Calm - N/A   Clear
1:53 AM 63.0 °F 37.9 °F 40% 29.83 in 10.0 mi Calm Calm - N/A   Clear
2:53 AM 62.1 °F 37.9 °F 41% 29.83 in 10.0 mi ESE 11.5 mph - N/A   Clear
3:53 AM 59.0 °F 37.9 °F 46% 29.83 in 10.0 mi East 10.4 mph - N/A   Clear
4:53 AM 61.0 °F 37.9 °F 42% 29.83 in 10.0 mi East 12.7 mph - N/A   Clear
5:53 AM 57.0 °F 37.9 °F 49% 29.84 in 10.0 mi South 11.5 mph - N/A   Clear
6:53 AM 60.1 °F 37.9 °F 44% 29.84 in 10.0 mi ENE 11.5 mph - N/A   Clear
8:53 AM 69.1 °F 37.0 °F 31% 29.85 in 10.0 mi East 10.4 mph - N/A   Clear
9:53 AM 71.1 °F 37.0 °F 29% 29.84 in 10.0 mi East 11.5 mph - N/A   Clear
10:53 AM 75.0 °F 39.9 °F 28% 29.83 in 10.0 mi ESE 11.5 mph - N/A   Clear
11:53 AM 79.0 °F 37.9 °F 23% 29.80 in 10.0 mi SE 8.1 mph - N/A   Clear
12:53 PM 82.9 °F 35.1 °F 18% 29.78 in 10.0 mi NNW 9.2 mph - N/A   Clear
1:53 PM 84.9 °F 35.1 °F 17% 29.75 in 10.0 mi West 12.7 mph 23.0 mph N/A   Clear
2:53 PM 84.0 °F 32.0 °F 15% 29.74 in 10.0 mi North 6.9 mph 17.3 mph N/A   Clear
3:53 PM 84.0 °F 32.0 °F 15% 29.72 in 10.0 mi SW 5.8 mph - N/A   Clear
4:53 PM 86.0 °F 30.0 °F 13% 29.68 in 10.0 mi Variable 4.6 mph - N/A   Clear
5:53 PM 84.9 °F 28.0 °F 13% 29.68 in 10.0 mi WNW 12.7 mph 17.3 mph N/A   Clear
6:53 PM 82.9 °F 26.1 °F 13% 29.67 in 10.0 mi West 8.1 mph - N/A   Clear
7:53 PM 81.0 °F 30.0 °F 16% 29.65 in 10.0 mi West 5.8 mph - N/A   Clear
8:53 PM 75.0 °F 30.9 °F 20% 29.67 in 10.0 mi NW 3.5 mph - N/A   Clear
9:53 PM 68.0 °F 30.9 °F 25% 29.70 in 10.0 mi Calm Calm - N/A   Clear
10:53 PM 64.0 °F 28.9 °F 27% 29.72 in 10.0 mi SE 5.8 mph - N/A   Clear
11:53 PM 63.0 °F 30.0 °F 29% 29.72 in 10.0 mi East 4.6 mph - N/A   Clear